When you browse on this site, cookies collect data to enhance your experience and personalize the content and advertising you see.
Visit our Privacy Policy to learn more. By continuing to use the site, you agree to this use of cookies and data.
  • In Portugal
  • List of Countries
  • For 7 days
  • Water Temperature
  • Satellite Maps
  • Weather Map
  • Weather Widgets
  • user-avatar
    Login

    Hourly Weather Chaldanka

    Today, 26 April, Friday

    Time Temperature Precipitation Wind Pressure Humidity
    00:00 +5°C° 0 mm 2 mps 755 mmHg 54%
    01:00 +4°C° 0 mm 2 mps 755 mmHg 56%
    02:00 +4°C° 0 mm 2 mps 756 mmHg 57%
    03:00 +3°C° 0 mm 2 mps 756 mmHg 58%
    04:00 +3°C° 0 mm 2 mps 756 mmHg 58%
    05:00 +3°C° 0 mm 2 mps 756 mmHg 57%
    06:00 +3°C° 0 mm 2 mps 756 mmHg 57%
    07:00 +4°C° 0 mm 3 mps 756 mmHg 48%
    08:00 +7°C° 0 mm 3 mps 756 mmHg 40%
    09:00 +10°C° 0 mm 3 mps 756 mmHg 31%
    10:00 +11°C° 0 mm 4 mps 756 mmHg 28%
    11:00 +12°C° 0 mm 4 mps 755 mmHg 25%
    12:00 +13°C° 0 mm 5 mps 755 mmHg 22%
    13:00 +13°C° 0 mm 4 mps 755 mmHg 22%
    14:00 +14°C° 0 mm 4 mps 754 mmHg 21%
    15:00 +14°C° 0 mm 4 mps 754 mmHg 20%
    16:00 +14°C° 0 mm 4 mps 754 mmHg 21%
    17:00 +13°C° 0 mm 3 mps 754 mmHg 22%
    18:00 +13°C° 0 mm 3 mps 754 mmHg 23%
    19:00 +11°C° 0 mm 3 mps 754 mmHg 26%
    20:00 +9°C° 0 mm 2 mps 754 mmHg 29%
    21:00 +8°C° 0 mm 2 mps 754 mmHg 31%
    22:00 +8°C° 0 mm 1 mps 754 mmHg 33%
    23:00 +8°C° 0 mm 1 mps 754 mmHg 35%

    Tomorrow, 27 April, Saturday

    Time Temperature Precipitation Wind Pressure Humidity
    00:00 +7°C° 0 mm 1 mps 755 mmHg 37%
    01:00 +7°C° 0 mm 1 mps 755 mmHg 38%
    02:00 +5°C° 0 mm 0 mps 755 mmHg 39%
    03:00 +5°C° 0 mm 0 mps 755 mmHg 41%
    04:00 +5°C° 0 mm 0 mps 755 mmHg 42%
    05:00 +5°C° 0 mm 0 mps 755 mmHg 43%
    06:00 +5°C° 0 mm 0 mps 755 mmHg 44%
    07:00 +9°C° 0 mm 1 mps 755 mmHg 40%
    08:00 +11°C° 0 mm 1 mps 755 mmHg 36%
    09:00 +14°C° 0 mm 2 mps 755 mmHg 31%
    10:00 +15°C° 0 mm 2 mps 754 mmHg 28%
    11:00 +16°C° 0 mm 3 mps 754 mmHg 25%
    12:00 +18°C° 0 mm 3 mps 753 mmHg 21%
    13:00 +18°C° 0 mm 3 mps 753 mmHg 20%
    14:00 +19°C° 0 mm 3 mps 753 mmHg 20%
    15:00 +19°C° 0 mm 3 mps 752 mmHg 19%
    16:00 +19°C° 0 mm 3 mps 752 mmHg 20%
    17:00 +18°C° 0 mm 2 mps 752 mmHg 21%
    18:00 +18°C° 0 mm 2 mps 752 mmHg 23%
    19:00 +16°C° 0 mm 2 mps 752 mmHg 24%
    20:00 +14°C° 0 mm 1 mps 753 mmHg 25%
    21:00 +13°C° 0 mm 1 mps 753 mmHg 27%
    22:00 +12°C° 0 mm 1 mps 753 mmHg 29%
    23:00 +11°C° 0 mm 1 mps 753 mmHg 31%

    Day after tomorrow, 28 April, Sunday

    Time Temperature Precipitation Wind Pressure Humidity
    00:00 +9°C° 0 mm 2 mps 754 mmHg 33%
    01:00 +9°C° 0 mm 2 mps 754 mmHg 35%
    02:00 +8°C° 0 mm 2 mps 754 mmHg 37%
    03:00 +8°C° 0 mm 3 mps 754 mmHg 39%
    04:00 +8°C° 0 mm 3 mps 754 mmHg 43%
    05:00 +8°C° 0 mm 3 mps 754 mmHg 47%
    06:00 +7°C° 0 mm 3 mps 754 mmHg 50%
    07:00 +10°C° 0 mm 3 mps 754 mmHg 45%
    08:00 +12°C° 0 mm 3 mps 754 mmHg 40%
    09:00 +14°C° 0 mm 3 mps 754 mmHg 34%
    10:00 +17°C° 0 mm 3 mps 753 mmHg 28%
    11:00 +19°C° 0 mm 4 mps 753 mmHg 23%
    12:00 +21°C° 0 mm 4 mps 753 mmHg 17%
    13:00 +21°C° 0 mm 4 mps 752 mmHg 17%
    14:00 +22°C° 0 mm 4 mps 752 mmHg 17%
    15:00 +22°C° 0 mm 5 mps 751 mmHg 16%
    16:00 +21°C° 0 mm 4 mps 751 mmHg 18%
    17:00 +20°C° 0 mm 3 mps 751 mmHg 20%
    18:00 +20°C° 0 mm 3 mps 751 mmHg 22%
    19:00 +18°C° 0 mm 3 mps 752 mmHg 24%
    20:00 +17°C° 0 mm 3 mps 752 mmHg 25%
    21:00 +14°C° 0 mm 3 mps 753 mmHg 26%
    22:00 +14°C° 0 mm 3 mps 753 mmHg 36%
    23:00 +13°C° 0 mm 3 mps 753 mmHg 45%

    29 April, Monday

    Time Temperature Precipitation Wind Pressure Humidity
    00:00 +13°C° 0 mm 4 mps 753 mmHg 54%
    01:00 +12°C° 0 mm 3 mps 753 mmHg 61%
    02:00 +11°C° 0 mm 3 mps 753 mmHg 68%
    03:00 +10°C° 0 mm 2 mps 753 mmHg 75%
    04:00 +10°C° 0.2 mm 2 mps 753 mmHg 77%
    05:00 +10°C° 0.2 mm 2 mps 753 mmHg 78%
    06:00 +9°C° 0.2 mm 2 mps 753 mmHg 79%
    07:00 +12°C° 0 mm 2 mps 753 mmHg 69%
    08:00 +13°C° 0 mm 3 mps 753 mmHg 59%
    09:00 +14°C° 0 mm 3 mps 753 mmHg 49%
    10:00 +17°C° 0 mm 3 mps 752 mmHg 46%
    11:00 +18°C° 0 mm 3 mps 752 mmHg 43%
    12:00 +19°C° 0 mm 3 mps 751 mmHg 39%
    13:00 +20°C° 0 mm 3 mps 751 mmHg 38%
    14:00 +20°C° 0 mm 3 mps 750 mmHg 37%
    15:00 +21°C° 0 mm 3 mps 749 mmHg 36%
    16:00 +20°C° 0 mm 2 mps 749 mmHg 39%
    17:00 +19°C° 0 mm 2 mps 749 mmHg 42%
    18:00 +19°C° 0 mm 1 mps 749 mmHg 45%
    19:00 +18°C° 0.4 mm 1 mps 749 mmHg 52%
    20:00 +15°C° 0.4 mm 2 mps 749 mmHg 59%
    21:00 +14°C° 0.4 mm 2 mps 750 mmHg 66%
    22:00 +12°C° 0.3 mm 3 mps 749 mmHg 71%
    23:00 +12°C° 0.3 mm 3 mps 749 mmHg 75%

    30 April, Tuesday

    Time Temperature Precipitation Wind Pressure Humidity
    00:00 +11°C° 0.3 mm 3 mps 749 mmHg 80%
    01:00 +10°C° 0 mm 3 mps 749 mmHg 80%
    02:00 +10°C° 0 mm 3 mps 749 mmHg 81%
    03:00 +9°C° 0 mm 3 mps 749 mmHg 81%
    04:00 +9°C° 0.1 mm 3 mps 749 mmHg 81%
    05:00 +9°C° 0.1 mm 3 mps 748 mmHg 81%
    06:00 +9°C° 0.1 mm 3 mps 748 mmHg 81%
    07:00 +10°C° 0.1 mm 3 mps 748 mmHg 76%
    08:00 +11°C° 0.1 mm 4 mps 748 mmHg 70%
    09:00 +12°C° 0.1 mm 4 mps 747 mmHg 65%
    10:00 +13°C° 0.1 mm 5 mps 747 mmHg 64%
    11:00 +13°C° 0.1 mm 5 mps 746 mmHg 62%
    12:00 +14°C° 0.1 mm 6 mps 745 mmHg 60%
    13:00 +14°C° 0 mm 6 mps 745 mmHg 62%
    14:00 +14°C° 0 mm 6 mps 744 mmHg 64%
    15:00 +13°C° 0 mm 6 mps 744 mmHg 66%
    16:00 +13°C° 0.7 mm 6 mps 744 mmHg 68%
    17:00 +12°C° 0.7 mm 5 mps 744 mmHg 69%
    18:00 +12°C° 0.7 mm 5 mps 744 mmHg 71%
    19:00 +10°C° 0.1 mm 4 mps 745 mmHg 71%
    20:00 +9°C° 0.1 mm 3 mps 745 mmHg 71%
    21:00 +7°C° 0.1 mm 2 mps 746 mmHg 71%
    22:00 +7°C° 0 mm 2 mps 746 mmHg 70%
    23:00 +7°C° 0 mm 2 mps 745 mmHg 70%

    1 May, Wednesday

    Time Temperature Precipitation Wind Pressure Humidity
    00:00 +7°C° 0 mm 3 mps 745 mmHg 70%
    01:00 +7°C° 0 mm 3 mps 745 mmHg 66%
    02:00 +5°C° 0 mm 3 mps 745 mmHg 62%
    03:00 +5°C° 0 mm 3 mps 744 mmHg 59%
    04:00 +5°C° 0 mm 3 mps 744 mmHg 55%
    05:00 +4°C° 0 mm 3 mps 744 mmHg 50%
    06:00 +5°C° 0 mm 2 mps 744 mmHg 46%
    07:00 +7°C° 0 mm 3 mps 744 mmHg 40%
    08:00 +8°C° 0 mm 4 mps 744 mmHg 33%
    09:00 +9°C° 0 mm 5 mps 744 mmHg 26%
    10:00 +10°C° 0 mm 5 mps 744 mmHg 25%
    11:00 +11°C° 0 mm 6 mps 744 mmHg 24%
    12:00 +13°C° 0 mm 6 mps 743 mmHg 22%
    13:00 +13°C° 0 mm 6 mps 743 mmHg 25%
    14:00 +11°C° 0 mm 6 mps 743 mmHg 28%
    15:00 +12°C° 0 mm 5 mps 743 mmHg 30%
    16:00 +12°C° 0 mm 5 mps 744 mmHg 33%
    17:00 +12°C° 0 mm 4 mps 744 mmHg 36%
    18:00 +12°C° 0 mm 4 mps 745 mmHg 39%
    19:00 +11°C° 0 mm 3 mps 746 mmHg 43%
    20:00 +10°C° 0 mm 2 mps 746 mmHg 46%
    21:00 +10°C° 0 mm 1 mps 747 mmHg 50%
    22:00 +10°C° 0 mm 1 mps 747 mmHg 52%
    23:00 +9°C° 0 mm 1 mps 747 mmHg 54%
    Show more